Wilmington, DE

2:37 PM EST on December 07, 2019 (GMT -0500)
New Castle County

Weather History for KILG - November, 2019

Change the Weather History Date:

Friday, November 22, 2019

  Actual Average Record
Temperature  
Mean Temperature 44 °F 45 °F  
Max Temperature 54 °F 54 °F 75 °F (1900)
Min Temperature 34 °F 36 °F 19 °F (1984)
Degree Days  
Heating Degree Days 21 20  
Month to date heating degree days 464 357  
Since 1 July heating degree days 634 701  
Cooling Degree Days 0 0  
Month to date cooling degree days 0 0  
Year to date cooling degree days 1508 1145  
Moisture  
Dew Point 36 °F    
Average Humidity 58    
Maximum Humidity 75    
Minimum Humidity 41    
Precipitation  
Precipitation T in 0.11 in 2.03 in (1952)
Month to date precipitation 0.21 2.09  
Year to date precipitation 42.30 38.59  
Snow  
Snow 0.00 in 0.00 in 0.30 in (1896)
Month to date snowfall T 0.0  
Since 1 July snowfall T 0.0  
Since 1 September snowfall T 0.0  
Snow Depth 0.00 in    
Sea Level Pressure  
Sea Level Pressure 29.90 in    
Wind  
Wind Speed 7 mph (West)    
Max Wind Speed 13 mph    
Max Gust Speed 16 mph    
Visibility 10 miles    
Events Rain    
T = Trace of Precipitation, MM = Missing Value Source: NWS Daily Summary

Daily Weather History Graph

Daily Weather History Graph

Search for Another Location

Airport or City:

Astronomy

Nov. 22, 2019 Rise Set
Actual Time 6:54 AM EST 4:42 PM EST
Civil Twilight 6:25 AM EST 5:11 PM EST
Nautical Twilight 5:52 AM EST 5:44 PM EST
Astronomical Twilight 5:19 AM EST 6:16 PM EST
Moon 1:58 AM EST (11/22) 2:40 PM EST (11/22)
Length of Visible Light 10h 46m
Length of Day
9h 47m
Waning Crescent, 20% of the Moon is Illuminated
Nov 22
Waning Crescent
Nov 26
New
Dec 4
First Quarter
Dec 12
Full
Dec 18
Last Quarter

Hourly Weather History & Observations

Time (EST) Temp. Windchill Dew Point Humidity Pressure Visibility Wind Dir Wind Speed Gust Speed Precip Events Conditions
12:51 AM 48.9 °F - 36.0 °F 61% 29.99 in 10.0 mi SSW 6.9 mph - N/A   Overcast
1:51 AM 48.9 °F - 37.0 °F 64% 29.96 in 10.0 mi SSW 6.9 mph - N/A   Overcast
2:51 AM 48.9 °F - 37.9 °F 66% 29.94 in 10.0 mi South 4.6 mph - N/A   Overcast
5:51 AM 45.0 °F 41.8 °F 37.0 °F 74% 29.88 in 10.0 mi South 5.8 mph - N/A   Scattered Clouds
6:51 AM 46.0 °F 44.8 °F 37.9 °F 73% 29.88 in 10.0 mi SSW 3.5 mph - N/A   Mostly Cloudy
7:51 AM 48.0 °F - 39.0 °F 71% 29.85 in 10.0 mi SSW 5.8 mph - N/A   Mostly Cloudy
8:51 AM 52.0 °F - 39.9 °F 63% 29.83 in 10.0 mi SW 6.9 mph - N/A   Scattered Clouds
9:51 AM 54.0 °F - 39.9 °F 59% 29.83 in 10.0 mi WSW 8.1 mph - N/A   Overcast
10:51 AM 53.1 °F - 39.9 °F 61% 29.82 in 10.0 mi WSW 15.0 mph - N/A   Overcast
11:51 AM 51.1 °F - 45.0 °F 80% 29.79 in 10.0 mi WSW 10.4 mph - 0.00 in Rain Light Rain
12:51 PM 50.0 °F - 46.0 °F 86% 29.77 in 7.0 mi WSW 11.5 mph - 0.04 in Rain Light Rain
1:29 PM 50.0 °F - 46.0 °F 86% 29.81 in 5.0 mi West 11.5 mph 24.2 mph 0.02 in Rain Light Rain
1:51 PM 50.0 °F - 46.9 °F 89% 29.80 in 7.0 mi West 5.8 mph - 0.03 in Rain Light Rain
2:51 PM 51.1 °F - 45.0 °F 80% 29.79 in 10.0 mi WNW 9.2 mph - 0.00 in   Mostly Cloudy
3:51 PM 50.0 °F - 37.9 °F 63% 29.84 in 10.0 mi WNW 13.8 mph 23.0 mph N/A   Clear
4:51 PM 46.0 °F 41.0 °F 34.0 °F 63% 29.88 in 10.0 mi NW 10.4 mph - N/A   Clear
5:51 PM 46.0 °F 39.6 °F 32.0 °F 58% 29.93 in 10.0 mi NW 15.0 mph 21.9 mph N/A   Clear
6:51 PM 44.1 °F 36.2 °F 28.9 °F 55% 29.97 in 10.0 mi NW 18.4 mph 24.2 mph N/A   Clear
7:51 PM 42.1 °F 35.7 °F 26.1 °F 53% 30.00 in 10.0 mi NW 11.5 mph - N/A   Clear
8:51 PM 39.0 °F 33.4 °F 26.1 °F 60% 30.03 in 10.0 mi NW 8.1 mph - N/A   Clear
9:51 PM 39.0 °F 34.0 °F 25.0 °F 57% 30.04 in 10.0 mi West 6.9 mph - N/A   Clear
10:51 PM 35.1 °F 29.3 °F 24.1 °F 64% 30.06 in 10.0 mi WNW 6.9 mph - N/A   Clear
11:51 PM 36.0 °F 31.1 °F 24.1 °F 62% 30.07 in 10.0 mi West 5.8 mph - N/A   Clear